Vertical_Velocity
0 1 -3 -7 -3 -1 1 2 0 -1 -1 4 -2 -1 -6 -6 4 1 -3 -1 -2 -3 7 5 1 -0 2 -1 1 -1 -0 3 -0 0 -4 0 -1 1 -1 -0 -1 0 0 1
2 -2 -7 0 1 2 2 2 -6 -4 -1 12 -1 -7 -4 -0 -7 -3 -2 -1 -2 2 1 2 -1 -2 1 1 -1 -1 1 4 4 2 -1 1 -2 -1 5 0 -0 1 1 -0
0 -8 2 4 1 4 -1 1 -2 1 -3 -5 5 -10 -2 -9 2 2 0 -1 4 -8 -7 -2 -2 -1 1 -1 -2 -1 1 2 3 2 -0 1 3 3 -1 -1 1 -1 1 0
-3 -9 2 2 -0 3 6 -2 1 1 5 -2 -1 -12 -1 -2 -3 1 -3 -1 -2 -3 7 5 0 -2 -0 -2 -1 3 1 1 1 0 -1 2 0 -3 -0 2 0 -1 -0 -2
-15 1 3 6 -15 2 -12 1 -1 0 1 7 -7 12 -17 3 -0 -3 -4 -1 -1 -4 -6 -5 -4 0 2 -2 -2 -0 3 1 -1 -0 2 1 -0 2 0 0 0 -1 -2 -0
-5 1 2 -8 -4 -1 -1 4 1 -0 2 7 -13 6 -13 -3 -10 -2 -1 -2 1 -1 4 5 6 5 3 -1 -1 -1 2 0 0 2 1 -0 -1 -1 -1 -1 -1 -1 -1 -0
3 -3 -1 1 2 6 7 1 -1 2 7 -9 -0 10 -27 -3 -3 -5 -4 -3 3 4 -0 -1 -2 -1 1 -1 -1 -1 3 -1 2 1 -1 -1 1 1 -1 -1 -1 -1 -1 -1
-0 4 1 -4 -5 -7 -5 -6 -3 -4 -1 -5 1 -6 -15 -8 -5 -1 -2 1 6 -0 3 3 1 -0 2 0 -0 -2 2 -1 2 0 -1 0 1 -1 -0 1 -1 1 -0 -1
1 -3 2 1 -1 -4 -3 4 -26 3 -1 6 -5 -4 -4 -0 -1 0 -1 4 3 4 -4 -6 1 1 0 -1 0 -2 0 1 2 0 0 0 2 1 0 -0 -0 -0 0 -1
-2 -2 -2 2 4 -0 0 -4 0 3 1 0 -2 -1 -10 1 -2 1 4 1 4 8 4 1 1 0 2 3 3 0 4 2 2 2 3 2 1 0 -0 1 -1 -0 -1 -1
-2 -2 2 1 -1 -7 4 3 2 -5 2 2 0 -8 -7 -4 -3 -2 -1 -0 -3 -1 0 -2 1 5 4 4 3 -1 2 2 1 3 2 1 1 0 0 -0 1 -1 0 -0
-8 -2 -1 -19 -2 -3 -4 -8 -2 1 -1 -2 5 -16 -0 -2 -2 -3 -1 0 5 7 -0 -1 -1 -1 1 1 2 1 2 2 4 2 2 1 1 0 1 1 -0 -0 1 -1
-3 -1 1 -0 14 11 2 -2 -3 1 -0 -3 1 -13 -1 1 1 2 -1 2 2 1 -1 0 2 1 0 1 1 1 2 2 1 1 2 1 1 0 0 0 0 0 -1 -1
1 0 -1 -6 3 -7 3 3 1 1 6 -5 -7 -8 -13 2 0 2 2 3 -0 -0 -1 -1 3 -0 0 1 -0 1 1 2 1 1 1 1 0 -0 0 0 -0 -1 -2 -1
-2 1 3 -4 -2 3 -5 -4 0 4 -3 -1 -8 2 -7 -2 -3 -2 -1 3 1 0 0 0 -1 0 0 0 1 3 3 1 1 1 0 1 -0 1 1 -0 -0 -1 0 0
1 -3 1 -2 0 1 2 1 0 -0 1 0 3 -13 -0 1 1 2 -0 -1 0 1 1 0 2 -1 -1 1 2 2 1 1 0 1 1 0 1 0 -0 0 -0 2 0 0
2 1 0 -1 -1 1 5 -8 -3 -2 0 -7 1 -29 -1 1 1 -0 1 -1 -6 -4 -5 -5 -5 -2 -0 -2 -1 -2 -0 0 1 1 0 0 -0 0 1 1 1 -1 -0 -1
0 2 1 0 -1 -2 -3 -1 -9 -8 -6 1 6 0 -1 -1 2 0 1 -1 -3 -1 -2 0 -1 -1 3 1 2 2 1 1 0 -0 1 0 1 1 1 -0 -1 -0 -0 -2
-0 1 -1 -1 0 -5 -1 2 -3 -6 -8 -2 -2 1 1 1 -1 -0 -0 1 4 1 3 3 3 3 2 2 1 2 0 0 0 1 1 1 1 -0 -1 -0 1 -1 -2 -1
0 1 -0 -2 -0 -0 -4 1 -0 -1 -5 -1 -2 -0 -2 1 -2 -3 -0 1 -0 1 3 -2 1 2 4 1 2 -0 -0 1 1 1 0 -1 -0 0 0 1 -1 -1 -3 -2
1 1 -2 -0 -0 -9 -3 -1 0 -5 -15 -0 1 -2 0 -2 -3 -3 -0 2 4 3 -1 1 3 0 2 1 1 2 2 1 1 -0 -0 -1 0 -0 0 -1 -2 -3 -1 2
-4 -3 -1 0 -0 -10 0 -4 -2 -7 0 0 0 1 -2 0 4 1 3 1 3 -2 -0 5 -2 1 1 2 1 1 1 0 -0 -1 -0 0 -0 0 -1 -2 -1 0 -0 -0
-1 -8 -8 -8 -12 -2 -0 0 0 1 -1 0 -1 2 -3 -3 1 1 1 1 2 1 -2 1 -1 -1 2 3 3 -1 -1 -0 -0 1 1 1 1 -1 -2 -3 -2 -0 0 -1
-1 -0 -1 -0 -2 -0 -1 0 0 1 -0 1 2 -0 7 -12 1 0 1 1 -1 1 -1 -1 -1 -0 -3 -0 -0 2 -1 -0 0 -0 -0 -0 -1 -1 -1 2 0 -1 -2 -2
-5 -2 -2 -4 -1 -0 -1 0 -1 -0 1 -2 2 1 -4 -3 1 0 -1 -0 0 -0 0 2 0 -0 -0 -1 -0 0 0 0 -0 -0 -0 -1 -2 -1 2 1 -3 -2 1 -1
-3 -5 -4 -8 -5 -4 -1 -0 0 -4 -2 0 -4 -0 4 4 -5 -1 -1 1 -1 -2 -1 -1 0 -0 -1 -0 0 0 1 1 1 -0 -0 -1 1 0 -1 -3 -2 8 1 -0
Height
1482 1486 1483 1484 1482 1481 1482 1480 1480 1479 1475 1475 1468 1459 1456 1457 1453 1452 1450 1450 1452 1454 1457 1458 1458 1459 1459 1460 1463 1466 1468 1471 1474 1479 1484 1488 1491 1492 1495 1496 1498 1500 1500 1500
1484 1478 1477 1478 1480 1481 1482 1481 1477 1478 1476 1472 1468 1457 1453 1447 1442 1446 1444 1445 1447 1450 1454 1453 1454 1455 1456 1458 1460 1462 1464 1467 1473 1478 1483 1486 1489 1492 1493 1496 1497 1498 1499 1498
1475 1471 1471 1474 1477 1480 1478 1478 1481 1482 1477 1467 1467 1451 1447 1437 1438 1438 1437 1438 1441 1443 1447 1449 1450 1452 1454 1456 1459 1461 1464 1469 1473 1477 1481 1484 1487 1489 1491 1494 1496 1496 1497 1497
1471 1471 1470 1470 1472 1476 1473 1471 1475 1477 1481 1479 1463 1453 1437 1429 1429 1430 1429 1432 1434 1437 1441 1444 1446 1448 1451 1455 1459 1462 1465 1469 1473 1476 1480 1482 1484 1487 1491 1493 1493 1495 1495 1495
1463 1464 1466 1467 1465 1469 1470 1470 1471 1473 1474 1476 1464 1469 1428 1429 1423 1417 1416 1422 1425 1428 1433 1438 1442 1445 1449 1453 1457 1462 1465 1468 1472 1475 1478 1481 1484 1488 1489 1491 1492 1493 1494 1493
1459 1459 1459 1455 1457 1462 1465 1469 1470 1471 1470 1465 1445 1455 1422 1419 1411 1410 1411 1414 1417 1423 1429 1434 1441 1444 1447 1451 1456 1461 1464 1467 1470 1473 1476 1480 1483 1486 1487 1489 1491 1491 1492 1491
1457 1456 1458 1455 1456 1460 1465 1471 1476 1481 1474 1451 1432 1442 1419 1407 1403 1398 1398 1404 1410 1416 1422 1430 1436 1440 1444 1448 1453 1459 1462 1465 1468 1471 1475 1479 1483 1485 1487 1488 1489 1489 1489 1489
1447 1452 1452 1449 1448 1452 1456 1460 1465 1470 1471 1447 1430 1424 1405 1396 1390 1393 1395 1398 1402 1410 1418 1425 1432 1437 1441 1445 1451 1457 1461 1463 1466 1470 1474 1478 1481 1483 1485 1486 1487 1487 1487 1486
1448 1446 1442 1444 1444 1447 1455 1454 1445 1454 1445 1440 1422 1401 1391 1386 1382 1383 1384 1392 1396 1402 1411 1422 1429 1435 1439 1444 1449 1454 1459 1462 1465 1469 1473 1476 1479 1481 1484 1485 1485 1485 1484 1483
1443 1451 1436 1437 1440 1441 1442 1442 1457 1462 1453 1440 1414 1407 1391 1377 1375 1379 1383 1386 1395 1402 1409 1419 1427 1433 1439 1444 1449 1454 1460 1462 1465 1469 1472 1475 1477 1480 1482 1483 1483 1483 1482 1481
1434 1439 1438 1438 1435 1431 1441 1445 1439 1439 1438 1420 1410 1397 1378 1373 1371 1376 1383 1384 1389 1397 1405 1416 1425 1432 1438 1444 1448 1453 1458 1461 1464 1468 1470 1473 1476 1478 1480 1480 1480 1480 1479 1477
1426 1432 1430 1422 1414 1422 1428 1427 1433 1430 1430 1423 1420 1397 1362 1365 1366 1374 1381 1385 1392 1398 1405 1415 1423 1430 1436 1442 1447 1452 1457 1460 1464 1467 1469 1471 1474 1476 1478 1478 1478 1478 1476 1474
1421 1421 1416 1411 1415 1419 1414 1420 1420 1422 1426 1420 1418 1393 1370 1365 1370 1376 1379 1387 1394 1400 1408 1416 1423 1428 1434 1440 1445 1451 1455 1459 1462 1465 1467 1470 1472 1474 1476 1476 1476 1474 1473 1470
1417 1412 1407 1397 1383 1387 1398 1407 1407 1413 1412 1407 1412 1403 1388 1372 1373 1378 1383 1387 1393 1400 1408 1415 1422 1427 1433 1439 1444 1449 1454 1458 1461 1464 1466 1469 1471 1472 1473 1473 1473 1471 1469 1467
1413 1404 1400 1392 1390 1393 1384 1390 1395 1400 1401 1409 1397 1399 1378 1368 1370 1375 1381 1388 1395 1402 1408 1413 1418 1425 1432 1438 1443 1448 1453 1456 1459 1462 1465 1467 1469 1470 1471 1470 1469 1468 1465 1463
1409 1400 1396 1375 1365 1382 1378 1383 1388 1396 1408 1412 1413 1405 1372 1371 1372 1378 1381 1387 1394 1400 1406 1411 1417 1423 1429 1435 1440 1446 1451 1454 1458 1461 1463 1465 1466 1468 1468 1467 1466 1464 1462 1460
1404 1398 1390 1376 1371 1373 1378 1375 1383 1390 1402 1408 1413 1395 1369 1371 1373 1377 1381 1386 1391 1396 1401 1407 1413 1421 1428 1433 1440 1444 1449 1453 1456 1459 1461 1463 1464 1465 1465 1464 1463 1461 1459 1456
1396 1394 1383 1379 1377 1379 1363 1362 1369 1382 1386 1392 1391 1371 1367 1370 1376 1379 1383 1385 1389 1394 1399 1405 1413 1421 1428 1434 1439 1444 1448 1452 1455 1457 1459 1461 1462 1463 1462 1461 1459 1457 1455 1452
1387 1388 1390 1388 1386 1371 1360 1364 1373 1377 1375 1370 1369 1370 1370 1374 1377 1381 1383 1387 1390 1394 1400 1406 1413 1420 1427 1433 1438 1443 1447 1451 1453 1455 1457 1459 1460 1460 1460 1459 1457 1454 1452 1448
1387 1386 1389 1403 1394 1378 1365 1363 1362 1363 1375 1363 1365 1369 1371 1375 1386 1385 1383 1387 1392 1397 1402 1407 1415 1421 1427 1432 1437 1442 1446 1449 1451 1454 1456 1458 1458 1457 1457 1456 1454 1451 1448 1445
1387 1387 1392 1394 1391 1381 1363 1360 1360 1369 1373 1360 1362 1365 1367 1372 1375 1380 1384 1388 1392 1397 1403 1410 1416 1421 1427 1432 1437 1441 1444 1447 1450 1453 1454 1455 1455 1455 1454 1453 1450 1447 1444 1441
1380 1384 1386 1390 1393 1393 1361 1360 1363 1365 1362 1362 1361 1363 1368 1372 1376 1382 1388 1391 1396 1400 1407 1413 1418 1424 1429 1434 1438 1441 1444 1447 1449 1451 1452 1453 1453 1453 1452 1450 1448 1444 1440 1436
1379 1374 1380 1382 1378 1367 1364 1364 1364 1363 1363 1363 1363 1365 1368 1374 1381 1387 1392 1397 1401 1405 1410 1416 1420 1425 1430 1434 1438 1440 1444 1446 1448 1450 1450 1451 1451 1450 1449 1447 1444 1440 1435 1430
1372 1370 1373 1372 1365 1365 1366 1365 1365 1365 1365 1365 1367 1369 1372 1376 1385 1390 1396 1400 1404 1409 1414 1418 1422 1426 1430 1435 1438 1441 1443 1446 1447 1448 1449 1449 1449 1448 1446 1443 1439 1435 1431 1426
1368 1368 1370 1370 1365 1366 1365 1366 1366 1367 1368 1370 1373 1376 1378 1382 1389 1393 1399 1404 1408 1412 1417 1421 1424 1428 1431 1434 1438 1441 1443 1445 1446 1447 1447 1447 1446 1445 1443 1439 1435 1431 1428 1424
1362 1362 1366 1363 1355 1357 1359 1363 1366 1368 1370 1374 1376 1381 1385 1388 1391 1398 1402 1407 1411 1415 1419 1422 1426 1429 1432 1435 1438 1440 1442 1444 1445 1445 1445 1445 1443 1442 1439 1435 1433 1430 1425 1421